Location: Melbourne
(37.8120°S, 144.9677°E)
Time: 06:07:27
(UTC+10:00)

ISS - Visible Passes

Search period start: 24 July 2014 00:00
Search period end: 03 August 2014 00:00
Orbit: 411 x 420 km, 51.6° (Epoch: 23 July)

Date Brightness Start Highest point End Pass type
(mag) Time Alt. Az. Time Alt. Az. Time Alt. Az.
24 Jul -1.0 17:57:06 10° S 17:58:30 12° SSE 17:59:54 10° SE visible
24 Jul -0.8 19:32:35 10° SW 19:33:30 17° SW 19:33:30 17° SW visible
25 Jul -2.3 18:43:59 10° SSW 18:47:01 30° SSE 18:47:10 30° SE visible
26 Jul -1.7 17:55:28 10° SSW 17:58:05 20° SSE 18:00:41 10° ESE visible
26 Jul -1.7 19:31:43 10° WSW 19:33:56 35° W 19:33:56 35° W visible
27 Jul -3.4 18:42:53 10° SW 18:46:16 80° SE 18:48:02 26° NE visible
28 Jul -2.8 17:54:11 10° SW 17:57:27 44° SE 18:00:41 10° ENE visible
28 Jul -0.5 19:31:36 10° W 19:33:55 17° NW 19:35:26 14° NNW visible
29 Jul -1.4 18:42:15 10° WSW 18:45:17 31° NW 18:48:17 10° NNE visible
30 Jul -2.6 17:53:15 10° WSW 17:56:35 61° NW 17:59:53 10° NE visible
31 Jul 0.3 18:43:22 10° WNW 18:44:05 11° NW 18:44:48 10° NW visible
